Location: Conflandey
(47.7287°N, 6.0456°E)
Time: 22:12:43
(UTC+00:00)

NOSS 2 (A) - Pass Details

Date: 24 October 2021
Orbit: 273 x 1575 km, 63.3° (Epoch: 06 February)

Event Time Altitude Azimuth Distance (km) Brightness Sun altitude
Rises 17:21:09 0° 320° (NW) 2,263 8.9 -9.0°
Reaches altitude 10° 17:23:20 10° 323° (NW) 1,314 7.7 -9.4°
Maximum altitude 17:26:09 72° 48° (NE) 334 4.1 -9.9°
Drops below altitude 10° 17:28:37 10° 134° (SE) 1,145 6.6 -10.3°
Enters shadow 17:28:49 - 134° (SE) 1,237 6.8 -10.3°
